CAPE
0 44 7 0 0 0 0 8 15 14 7 0 0 0 0 0 0 0 4 0 0 6 0 0 20 67 37 9 0 0 0 0 15 43 43 87 59 8 1 0 1 9 8 5 5 4 7 6 5
0 0 0 0 2 10 3 0 22 25 23 0 0 0 0 9 0 3 0 0 4 1 0 0 41 25 2 0 0 0 0 0 0 2 70 34 4 8 4 3 1 4 6 5 2 2 4 2 0
0 0 4 11 11 26 3 0 0 49 1 11 23 0 0 0 1 2 4 0 13 0 2 0 19 16 1 0 0 0 0 0 0 0 0 0 0 0 0 0 4 3 7 2 2 1 0 0 0
0 0 0 25 21 2 0 0 46 3 5 13 14 0 0 1 1 3 4 7 9 0 20 0 10 0 0 0 0 0 0 0 0 0 0 0 0 0 0 0 0 10 19 6 3 0 0 0 0
0 0 0 8 7 0 0 0 47 0 16 21 0 0 0 4 2 4 4 5 0 0 17 6 0 0 0 0 0 0 0 0 0 0 3 1 0 0 0 0 0 0 0 0 0 0 0 0 0
0 0 0 1 0 0 0 2 27 1 19 3 0 0 0 1 1 2 4 3 0 0 9 22 13 4 0 0 0 0 0 0 0 0 0 2 3 1 0 0 0 0 0 0 0 0 0 0 0
0 0 0 0 0 3 0 0 0 0 7 0 0 0 0 2 1 1 2 0 1 0 5 29 23 15 0 0 0 0 0 0 0 0 0 0 0 0 0 0 0 0 0 0 0 0 0 0 0
0 0 0 0 0 0 0 0 0 0 0 0 0 0 0 1 4 3 1 0 2 0 0 3 9 16 17 1 0 0 0 0 0 0 0 0 0 0 0 0 0 0 0 0 0 0 0 0 0
0 0 0 0 0 0 0 0 0 0 0 0 0 0 0 0 4 4 2 3 5 2 1 0 6 18 4 0 0 0 0 0 0 0 0 0 0 0 0 0 0 0 0 0 0 0 0 0 0
0 0 0 0 0 0 0 0 0 0 0 0 0 0 0 0 1 1 0 2 3 3 6 0 0 0 3 0 0 2 0 2 2 3 4 3 2 1 0 0 0 0 0 0 0 0 0 0 0
0 0 0 0 0 0 0 0 0 0 0 0 0 0 0 0 1 0 0 0 2 2 5 3 0 7 9 3 1 1 0 1 1 1 0 0 0 0 0 0 0 0 0 0 0 0 0 0 0
0 0 0 0 0 0 0 0 0 0 0 0 0 0 0 0 0 0 0 0 2 0 0 1 6 8 11 11 1 1 1 1 0 0 0 0 0 0 0 0 0 0 0 0 0 0 0 0 0
0 0 0 0 0 0 0 0 0 0 0 0 0 0 0 1 0 0 0 0 0 0 0 0 5 4 4 6 3 1 0 0 0 0 0 0 0 0 0 0 0 0 0 0 0 0 0 0 0
0 0 0 0 0 0 0 0 0 0 0 0 0 4 0 2 2 0 1 2 1 1 0 0 0 0 0 0 0 0 0 0 0 0 0 0 0 0 0 0 1 1 5 2 1 1 0 8 13
1 0 0 0 0 0 0 0 0 0 0 0 3 27 32 35 59 12 0 0 0 0 0 0 0 0 0 0 0 0 0 0 0 0 0 0 0 1 44 62 63 34 34 20 29 24 27 20 24
0 0 11 0 0 0 0 0 0 0 0 14 32 43 36 59 38 53 46 3 2 7 0 0 0 0 0 0 0 0 0 0 6 5 27 40 26 2 39 93 99 85 29 32 34 36 19 14 8
1 2 1 1 0 0 0 0 0 0 0 10 40 64 64 79 68 73 56 38 22 6 0 0 0 0 0 0 0 0 17 42 62 53 56 58 36 0 8 68 22 13 16 27 22 13 14 5 9
1 0 1 2 0 0 0 0 0 0 0 3 52 84 91 94 97 63 45 28 27 14 18 33 12 9 9 10 19 47 68 69 58 91 49 1 0 0 1 1 0 1 0 0 1 2 3 5 6
7 3 0 2 0 0 0 0 0 0 0 0 49 71 115 139 134 85 55 36 8 0 2 9 11 17 20 44 78 112 158 113 3 0 0 0 0 0 0 0 0 0 0 0 0 0 0 0 1
3 9 3 0 0 0 0 0 0 0 0 0 0 49 129 137 0 0 0 0 0 0 0 0 0 0 0 15 29 80 130 1 0 0 0 0 0 0 0 0 0 0 0 0 0 0 0 0 3
3 5 2 4 0 0 0 0 0 0 0 0 0 0 42 126 0 0 0 0 0 0 0 0 0 0 0 1 2 3 2 0 0 0 0 0 0 0 0 0 0 0 0 0 0 0 2 1 0
4 1 10 3 0 2 0 1 0 0 0 0 0 0 0 0 0 0 0 0 0 0 0 0 0 0 0 0 0 0 0 0 0 0 0 0 0 0 0 0 0 0 0 0 0 0 0 1 0
10 1 5 4 1 0 0 0 0 0 0 0 0 0 0 0 0 0 0 0 0 0 0 0 0 0 0 0 0 0 0 0 0 0 0 0 0 0 0 0 0 0 0 0 0 0 0 0 0
0 3 2 0 1 0 0 0 0 0 0 0 0 0 0 0 0 0 0 0 0 0 0 0 0 0 0 0 0 0 0 0 0 0 0 0 0 0 0 0 0 0 0 0 0 0 0 0 0
23 8 0 0 0 0 0 0 0 0 0 0 0 0 0 0 0 0 0 0 0 0 0 0 0 0 0 0 0 0 0 0 0 0 0 0 0 0 0 0 0 0 0 0 0 0 0 0 0
2 2 0 0 0 0 0 0 0 0 0 0 0 0 0 0 0 0 0 0 0 0 0 0 0 0 0 0 0 0 0 0 0 0 0 0 0 0 0 0 0 0 0 0 0 0 0 0 0
16 1 0 0 0 0 0 0 0 0 0 0 0 0 0 0 0 0 0 0 0 0 0 0 0 0 0 0 0 0 0 0 0 0 0 0 0 0 0 0 0 0 0 0 0 0 0 0 0
11 0 1 0 0 0 0 0 0 0 0 0 0 0 1 4 2 1 0 0 0 1 1 0 0 1 0 0 0 0 0 0 0 0 0 0 0 0 0 0 0 0 0 0 0 0 0 0 0
4 7 0 0 0 0 0 0 0 0 0 0 0 1 2 1 2 2 3 4 1 0 0 0 0 0 0 0 0 0 0 0 0 0 0 0 0 0 0 0 0 0 0 0 0 0 0 0 0
1 2 0 10 0 0 0 0 0 0 0 0 0 1 1 1 1 0 0 0 0 0 0 0 0 0 0 0 0 0 0 0 0 0 0 0 0 0 0 0 0 0 0 0 0 0 0 0 0
CIN
0 -259 -356 -14 0 0 -1 -20 -53 -44 -46 0 0 0 0 0 0 0 -1 0 -1 -1 0 0 -13 -32 -48 -4 0 0 0 0 -48 -30 -28 -11 -23 -35 -11 0 -1 0 0 0 0 0 0 0 0
0 -29 0 -74 -12 -2 -1 0 -25 -45 -82 0 0 0 0 -66 0 0 -1 0 0 -1 0 0 -72 -21 -1 0 0 0 0 0 0 -29 -19 -57 -45 -9 -4 -1 -1 0 0 0 0 0 0 0 0
0 0 -29 -43 -16 -2 -2 0 0 -100 -18 -75 -60 0 0 0 0 0 -1 0 0 0 -1 0 -1 -1 0 0 0 0 0 0 0 0 0 0 0 0 0 0 -1 -1 0 0 0 0 0 0 0
0 0 0 -13 -7 -19 0 0 -62 -61 -106 -97 -68 0 0 0 0 0 0 0 0 0 0 0 -1 0 0 0 0 0 0 0 0 0 0 0 0 0 0 0 0 -2 -1 0 0 0 0 0 0
0 0 0 -19 -20 0 0 0 -58 0 -57 -54 0 0 0 0 -1 -1 0 -1 0 0 0 0 0 0 0 0 0 0 0 0 0 0 0 0 0 0 0 0 0 0 0 0 0 0 0 0 0
0 0 0 -21 0 0 0 -52 -70 -11 -53 -13 0 0 0 0 0 0 0 -1 0 0 0 0 -2 -1 0 0 0 0 0 0 0 0 0 0 0 0 0 0 0 0 0 0 0 0 0 0 0
0 0 0 0 0 -51 0 0 0 -2 -27 0 0 0 0 0 0 0 0 -1 0 0 -1 0 0 -1 0 0 0 0 0 0 0 0 0 0 0 0 0 0 0 0 0 0 0 0 0 0 0
0 0 0 0 0 0 0 0 0 0 0 0 0 0 0 0 0 0 -1 0 -1 0 0 0 -1 0 0 0 0 0 0 0 0 0 0 0 0 0 0 0 0 0 0 0 0 0 0 0 0
0 0 0 0 0 0 0 0 0 0 0 0 0 0 0 0 0 0 -1 -1 -1 -1 -1 0 0 0 0 0 0 0 0 0 0 0 0 0 0 0 0 0 0 0 0 0 0 0 0 0 0
0 0 0 0 0 0 0 0 0 0 0 0 0 0 0 0 0 0 -1 0 0 0 0 0 0 0 0 0 0 0 0 0 0 0 0 0 0 0 0 0 0 0 0 0 0 0 0 0 0
0 0 0 0 0 0 0 0 0 0 0 0 0 0 0 0 0 0 0 0 0 0 0 0 0 0 0 0 0 -1 0 0 0 0 0 0 0 0 0 0 0 0 0 0 0 0 0 0 0
0 0 0 0 0 0 0 0 0 0 0 0 0 0 0 0 0 0 0 0 0 0 0 0 0 0 0 0 0 0 0 0 0 0 0 0 0 0 0 0 0 0 0 0 0 0 0 0 0
0 0 0 0 0 0 0 0 0 0 0 0 0 0 0 0 0 0 0 0 0 0 0 0 0 0 0 0 -1 0 0 0 0 0 0 0 0 0 0 0 0 0 0 0 0 0 0 0 0
0 0 0 0 0 0 0 0 0 0 0 0 0 -94 0 0 0 0 0 0 0 -1 0 -1 0 0 0 0 0 0 0 0 0 0 0 0 0 0 0 0 0 -1 -1 -2 -1 0 0 -4 -2
-29 0 0 0 0 0 0 0 0 0 0 0 -174 -214 -203 -178 -148 -88 0 0 0 0 0 0 0 0 0 0 0 0 0 0 0 0 0 0 0 0 -4 -1 -1 0 0 -4 -1 -2 0 -1 -1
0 -9 -1 0 0 0 0 0 0 0 0 -120 -157 -189 -210 -152 -134 -102 -91 -18 -17 -80 0 0 0 0 0 0 0 0 0 0 -3 -2 -4 -4 -7 -1 -15 -5 -6 -2 -9 -7 -7 -4 -9 -7 -6
-8 0 0 -2 0 0 0 0 0 0 0 -85 -136 -160 -173 -132 -117 -101 -102 -91 -81 -49 0 0 0 0 0 0 0 0 -12 -14 -1 -2 -2 -6 -15 0 -25 -12 -34 -53 -49 -23 -26 -32 -6 0 -1
-4 -1 0 0 0 0 0 0 0 0 0 -63 -121 -143 -154 -128 -86 -78 -89 -83 -69 -61 -50 -43 -65 -54 -51 -48 -33 -25 -19 -8 -2 0 -12 0 0 0 -13 -16 -28 -25 0 0 0 0 0 0 0
-2 -1 0 -10 0 0 0 0 0 0 0 0 -92 -124 -131 -96 -75 -92 -86 -94 -131 -1 -89 -91 -82 -75 -78 -28 -18 -14 -1 -2 0 0 0 0 0 0 0 0 0 0 0 0 0 0 0 0 -1
-4 -1 -1 0 0 0 0 0 0 0 0 0 0 -110 -101 -88 0 0 0 0 0 0 0 0 0 0 0 -100 -62 -20 -9 0 0 0 0 0 0 0 0 0 0 0 0 0 0 0 -1 0 -1
-3 0 -1 -4 0 0 0 0 0 0 0 0 0 0 -144 -91 0 0 0 0 0 0 0 0 0 0 0 0 0 0 0 0 0 0 0 0 0 0 0 0 0 0 0 0 0 0 0 0 0
0 -1 -7 -7 -1 0 0 -2 0 0 0 0 0 0 0 0 0 0 0 0 0 0 0 0 0 0 0 0 0 0 0 0 0 0 0 0 0 0 0 0 0 0 0 0 0 0 0 0 0
-2 -12 -12 -15 -3 0 0 0 0 0 0 0 0 0 0 0 0 0 0 0 0 0 0 0 0 0 0 0 0 0 0 0 0 0 0 0 0 0 0 0 0 0 0 0 0 0 0 0 0
-8 -23 -16 -5 -1 0 0 0 0 0 0 0 0 0 0 0 0 0 0 0 0 0 0 0 0 0 0 0 0 0 0 0 0 0 0 0 0 0 0 0 0 0 0 0 0 0 0 0 0
-6 -4 -2 -3 0 -3 0 0 -1 0 0 0 0 0 0 0 0 0 0 0 0 0 0 0 0 0 0 0 0 0 0 0 0 0 0 0 0 0 0 0 0 0 0 0 0 0 0 0 0
-3 -1 0 0 0 0 0 0 0 0 0 0 0 0 0 0 0 0 0 0 0 0 0 0 0 0 0 0 0 0 0 0 0 0 0 0 0 0 0 0 0 0 0 0 0 0 0 0 0
-1 0 0 0 0 0 0 0 0 0 0 0 0 0 0 0 0 0 0 0 0 0 0 0 0 0 0 0 0 0 0 0 0 0 0 0 0 0 0 0 0 0 0 0 0 0 0 0 0
-11 0 -9 0 0 0 0 0 0 0 0 0 0 0 0 0 0 0 0 0 0 0 0 0 0 0 0 0 0 0 0 0 0 0 0 0 0 0 0 0 0 0 0 0 0 0 0 0 0
-13 -9 0 0 0 0 0 0 0 0 0 0 0 0 0 0 0 0 0 0 0 0 0 0 0 0 0 0 0 0 0 0 0 0 0 0 0 0 0 0 0 0 0 0 0 0 0 0 0
0 -1 -3 -1 0 0 0 0 0 0 0 0 0 0 0 0 0 0 0 0 0 0 0 0 0 0 0 0 0 0 0 0 0 0 0 0 0 0 0 0 0 0 0 0 0 0 0 0 0
Wind_Speed
17 17 17 18 17 18 12 12 13 9 14 14 8 16 15 12 15 17 21 22 25 25 24 26 25 18 16 15 14 13 12 13 15 17 19 19 18 18 19 19 20 21 21 21 21 22 22 22 22
16 16 17 16 17 16 11 14 12 13 13 9 10 12 14 13 13 13 20 26 26 24 24 25 23 19 16 15 14 13 13 14 13 13 16 16 17 18 18 19 20 20 20 21 21 21 21 21 21
16 16 17 16 16 14 14 16 12 8 13 15 14 12 13 13 12 18 3 25 25 25 25 24 23 20 19 16 14 13 13 12 13 12 13 14 15 16 18 19 20 20 20 20 20 21 20 20 20
17 17 16 17 14 13 13 14 13 9 13 14 13 11 12 14 4 16 18 23 24 24 25 24 23 22 22 20 18 16 14 13 12 13 14 15 16 17 18 18 18 19 20 20 20 20 20 20 20
16 17 18 16 14 13 14 15 12 12 12 12 15 13 12 8 13 3 20 21 21 20 23 24 23 21 20 20 20 19 19 16 13 13 13 14 16 16 17 18 18 19 19 19 20 20 20 20 21
18 18 21 18 15 14 13 12 11 13 13 12 13 9 10 14 8 16 21 19 18 17 20 21 21 19 19 19 18 18 18 18 17 15 15 15 16 16 17 18 18 19 19 19 20 20 20 21 20
18 19 19 17 16 14 12 11 13 14 14 14 10 10 13 14 4 12 19 16 14 14 16 18 18 18 17 16 16 16 17 16 16 16 16 16 17 17 17 18 19 19 19 19 20 20 21 21 21
18 20 20 18 17 14 14 14 16 14 14 11 14 14 13 15 4 4 10 13 12 13 16 16 17 17 16 15 15 15 15 15 15 15 16 16 16 17 17 18 19 20 20 20 20 21 22 22 22
19 23 22 19 18 14 14 15 14 15 13 14 14 14 13 5 4 9 10 10 10 10 13 14 15 14 12 12 13 14 14 14 15 15 16 16 16 17 17 18 19 20 21 21 21 22 22 21 18
23 24 22 18 17 16 16 16 16 15 14 15 13 12 5 6 6 10 10 11 10 11 11 11 12 12 11 11 12 12 13 13 14 14 15 15 16 17 18 18 19 20 21 21 20 21 23 21 23
23 26 21 18 18 18 18 15 17 17 16 17 16 9 3 5 5 8 8 8 10 11 8 9 10 10 10 10 11 11 12 12 13 13 14 15 15 16 17 18 19 20 20 20 20 22 22 23 23
30 28 24 20 19 20 20 19 18 20 16 16 17 7 3 5 5 7 6 5 5 6 8 7 9 8 8 9 9 10 11 11 12 13 13 14 14 15 16 16 18 18 19 20 21 22 22 23 22
37 30 27 23 20 21 21 21 20 21 21 17 12 8 4 0 2 3 4 5 2 2 2 4 7 7 7 8 8 9 9 10 11 12 12 12 13 14 14 15 16 18 20 21 23 24 26 26 26
36 37 30 27 25 23 23 22 21 18 19 17 14 13 11 7 3 3 5 4 4 4 3 2 3 4 5 6 7 8 8 9 10 11 11 12 13 16 18 20 21 23 23 24 24 26 26 26 26
30 36 33 31 31 28 24 28 25 21 20 19 17 15 13 12 8 6 4 6 6 7 7 5 4 3 3 4 5 6 7 9 10 11 12 13 16 19 22 24 25 26 26 27 27 26 25 26 27
26 29 45 36 31 31 26 32 24 21 22 21 19 18 16 13 11 11 8 8 8 8 7 7 8 6 4 4 5 6 8 9 11 14 16 18 19 21 23 24 26 27 29 30 31 31 32 32 32
23 28 34 43 31 31 31 34 26 23 24 24 22 20 17 15 15 13 12 11 9 9 8 8 7 7 6 7 7 8 10 11 13 16 17 19 21 23 25 27 29 30 31 32 32 33 33 35 35
30 27 29 37 36 34 37 40 31 27 25 27 24 21 18 17 16 15 14 13 13 11 10 10 10 10 10 11 11 11 12 14 16 18 20 22 23 25 26 27 29 30 31 32 32 34 34 34 34
23 23 20 23 27 33 37 39 36 31 29 27 26 23 20 18 16 15 16 15 15 14 14 13 13 13 12 14 14 15 16 15 17 17 20 22 25 26 27 29 30 30 31 31 31 33 34 34 33
24 24 26 20 22 27 30 38 36 31 32 30 27 24 21 17 16 15 15 14 14 14 14 15 15 16 16 16 17 17 15 15 16 19 22 24 25 27 28 29 29 30 29 30 31 32 33 34 33
31 26 24 24 21 26 26 36 35 35 31 30 28 24 20 18 16 16 16 15 15 14 15 14 15 16 17 17 17 16 15 16 19 23 24 25 26 27 28 28 28 29 29 30 31 32 33 35 35
33 27 24 24 27 35 26 35 31 33 31 29 31 26 21 18 17 17 15 15 14 14 13 13 14 15 16 17 16 17 17 17 20 22 23 24 26 27 28 29 30 30 30 32 33 32 33 34 37
30 24 22 24 26 27 29 34 32 28 32 30 27 25 21 17 14 15 15 13 13 13 14 13 13 14 14 14 14 13 15 17 16 18 22 24 25 27 29 30 31 32 32 33 33 34 34 34 36
21 22 23 24 26 41 34 33 34 31 31 26 23 21 18 16 13 12 11 11 10 11 13 14 13 13 13 13 13 15 16 19 18 21 22 23 25 28 30 31 31 32 32 34 36 35 34 35 35
26 21 30 36 36 42 26 34 42 27 25 21 18 17 14 11 10 9 8 8 8 10 11 14 14 12 14 14 15 16 18 19 22 22 25 26 28 32 33 33 34 35 34 35 36 35 35 36 36
27 30 32 40 39 36 24 37 31 28 24 15 12 10 8 8 6 7 6 6 8 9 12 12 15 14 14 16 17 19 21 26 26 26 26 28 29 30 32 33 33 34 35 35 35 35 36 37 37
28 31 26 25 25 33 29 29 27 21 17 12 9 7 7 6 5 5 6 8 9 11 12 13 13 16 17 18 18 21 22 23 25 25 26 27 28 30 31 33 33 34 34 36 36 36 37 38 38
27 21 28 28 37 40 34 33 31 22 16 12 9 7 6 5 5 5 7 8 10 11 12 15 17 18 18 19 21 20 20 22 24 25 27 27 28 30 31 32 33 35 35 37 38 38 39 40 39
24 28 27 25 27 35 39 32 26 24 18 14 10 7 7 6 5 6 8 11 13 14 15 15 15 15 16 17 18 19 20 22 23 25 27 29 30 31 32 34 35 36 37 38 39 40 41 42 43
21 25 27 32 31 31 30 32 23 20 15 10 10 8 6 6 7 8 8 11 12 11 12 12 13 15 16 18 19 20 22 23 25 27 28 29 31 32 34 35 36 37 38 38 40 41 41 42 43
Wind_Direction
248 245 238 232 238 233 252 247 240 264 233 231 270 209 206 222 201 182 153 167 112 110 105 120 112 81 66 56 47 40 31 30 32 37 51 53 44 36 27 20 21 28 30 31 31 30 27 22 15
255 249 237 244 242 240 256 244 250 246 240 252 253 241 222 232 227 217 149 137 115 107 107 110 102 84 70 57 49 40 33 34 28 26 35 36 29 23 18 25 32 30 30 33 34 33 28 20 12
254 253 243 247 249 251 253 243 248 267 237 228 239 248 241 244 236 89 230 113 111 111 109 107 105 91 83 66 50 39 29 23 28 21 12 10 7 11 23 28 37 38 39 34 30 27 20 9 1
254 245 250 248 250 265 260 254 245 258 241 243 249 282 263 245 303 214 95 109 110 109 117 111 110 102 101 88 75 57 41 30 18 18 24 27 30 30 28 25 21 18 31 30 26 21 13 6 2
259 247 244 247 252 265 271 257 245 248 257 264 252 272 279 269 242 43 103 108 106 102 113 117 116 106 102 95 91 84 77 57 28 21 14 24 21 18 18 15 13 12 10 13 14 9 6 8 12
247 247 239 241 251 266 277 262 250 253 259 270 270 296 283 247 263 98 110 105 99 95 105 108 109 101 98 93 85 78 73 70 62 40 27 21 22 24 20 15 13 12 13 13 14 14 12 10 12
249 244 242 245 252 262 271 257 258 262 261 265 285 282 266 244 266 95 109 96 90 87 95 99 104 101 95 84 80 74 68 59 53 46 39 33 31 27 22 19 16 14 15 13 6 2 360 360 1
257 247 243 247 247 260 265 259 257 267 269 287 266 267 273 241 94 95 94 93 86 89 98 102 105 107 98 84 75 68 60 56 49 38 33 31 30 26 21 19 10 358 1 8 9 3 356 354 356
260 245 241 246 247 257 269 263 266 267 275 267 273 271 274 101 118 106 102 93 87 85 91 97 100 96 77 67 66 66 65 60 60 56 46 44 28 20 17 11 5 354 350 354 1 358 1 6 16
248 244 244 254 255 256 268 266 266 266 273 266 277 287 355 105 122 118 115 112 104 102 95 89 93 89 71 57 65 67 67 65 60 52 46 40 31 20 10 7 1 343 344 1 11 6 352 4 358
248 245 250 254 256 261 266 272 265 265 269 266 267 295 10 110 129 127 120 112 112 107 90 89 91 82 76 64 63 62 65 63 58 57 51 45 43 33 21 6 4 1 2 5 7 1 1 358 355
247 248 250 254 259 259 262 270 269 262 273 275 268 308 60 110 136 136 130 116 107 106 102 92 98 81 76 64 68 59 56 54 53 50 45 43 43 39 31 23 12 11 6 1 358 356 354 352 354
245 247 248 253 260 261 264 265 268 267 264 279 285 298 304 42 186 240 268 282 300 79 69 81 98 90 83 86 66 57 48 46 34 34 34 34 32 27 24 18 15 5 358 356 349 346 342 341 341
249 243 248 249 254 260 261 264 268 274 271 274 282 282 282 279 246 254 265 278 287 296 320 357 50 51 58 66 69 52 45 40 33 20 17 17 9 2 355 349 345 342 343 342 342 339 340 339 340
251 241 243 247 248 254 262 258 262 272 276 272 275 279 279 275 266 263 262 277 286 290 297 306 319 354 19 38 49 48 33 15 8 4 359 357 350 341 335 331 330 332 332 332 334 337 339 337 335
252 248 238 242 246 249 255 251 264 275 272 272 273 275 276 273 271 271 274 278 284 290 296 305 305 314 332 357 6 10 5 4 355 350 345 341 338 336 332 330 331 329 325 325 327 327 327 327 326
255 251 245 238 246 249 249 252 261 272 271 271 271 274 275 275 273 271 272 276 282 290 298 303 309 313 321 326 333 339 342 344 345 341 340 336 334 332 329 328 326 326 325 324 324 323 323 324 324
248 252 251 241 239 247 249 252 261 267 273 267 270 271 274 275 275 274 273 277 282 289 297 300 302 306 310 313 319 326 330 333 335 334 335 332 333 331 332 331 329 328 327 326 325 323 323 324 326
254 252 258 250 245 251 253 253 259 262 265 268 267 268 271 272 280 281 278 280 284 288 291 295 299 302 304 304 307 312 317 328 333 337 335 332 332 332 333 331 329 330 330 330 329 327 326 326 329
252 250 253 261 254 255 257 253 259 260 260 263 268 267 268 269 276 284 286 286 285 291 294 296 300 301 302 302 305 309 316 327 332 331 331 332 335 335 335 334 332 333 333 334 333 332 329 327 330
247 252 255 258 262 262 266 260 261 260 260 264 268 272 270 268 272 279 285 289 291 294 297 300 305 307 308 307 307 310 318 323 323 324 329 334 337 338 338 338 336 336 337 336 336 335 332 328 328
246 257 260 259 258 256 260 261 261 258 259 263 261 264 268 270 273 277 283 289 298 304 307 309 312 313 315 316 316 316 312 314 319 324 330 336 339 340 340 339 338 338 338 336 334 335 333 330 326
254 256 260 262 260 264 260 261 263 262 259 262 265 262 267 271 277 276 280 288 301 309 313 318 321 324 326 330 332 331 331 324 330 334 335 335 338 342 342 341 340 338 336 335 334 333 333 331 328
247 254 262 264 265 256 257 258 263 264 264 265 265 266 267 266 277 281 287 291 301 316 322 324 325 329 335 340 339 336 333 329 331 332 334 333 336 339 340 339 341 339 341 337 333 335 335 334 332
245 246 254 253 254 254 265 259 258 274 276 272 262 263 267 268 273 274 283 300 308 322 334 331 328 331 337 341 343 340 339 333 329 331 330 326 327 331 332 334 335 334 338 336 333 336 336 335 334
246 245 252 252 254 259 267 260 268 275 278 279 271 265 265 267 272 276 288 300 320 328 335 335 332 329 332 329 330 333 335 323 318 332 329 329 331 330 331 335 338 338 336 337 337 336 336 336 335
248 248 257 264 270 262 264 271 276 280 280 273 266 252 256 262 268 281 301 307 313 329 330 331 334 331 327 332 334 331 331 330 329 332 334 336 336 334 336 338 339 340 341 339 339 339 338 337 335
254 246 252 257 255 258 265 269 271 269 268 262 251 242 251 267 277 294 306 314 320 327 331 327 328 327 326 324 324 333 337 331 337 340 341 342 341 342 340 340 340 340 340 339 338 337 337 336 336
247 249 255 260 264 263 262 271 278 268 262 252 248 246 254 265 287 302 310 313 314 315 316 324 331 342 344 343 342 343 343 346 345 343 342 341 340 339 338 338 339 338 337 338 337 336 335 335 334
257 259 253 256 260 265 273 273 287 283 267 250 246 247 254 272 288 304 316 314 317 325 330 335 342 346 348 351 350 346 342 343 343 342 342 341 340 340 339 338 336 336 337 338 338 337 337 335 334